timestamp,wind_dir_avg,wind_spd_avg,wind_spd_max_dir,wind_spd_gust,battery_voltage,lat,long
2022-12-28 00:04:01+00:00,232.0,11.29,231.0,12.43,12.25,47.59359,-54.27349
2022-12-28 00:14:01+00:00,229.0,10.99,231.0,12.59,12.17,47.59359,-54.27349
2022-12-28 00:24:01+00:00,221.0,7.83,238.0,10.68,12.17,47.59359,-54.27349
2022-12-28 00:34:01+00:00,208.0,7.48,207.0,8.07,12.17,47.59359,-54.27349
2022-12-28 00:44:01+00:00,198.0,8.07,200.0,8.95,12.17,47.59359,-54.27349
2022-12-28 00:54:01+00:00,204.0,7.55,193.0,9.33,12.17,47.59359,-54.27349
2022-12-28 01:04:01+00:00,206.0,10.53,222.0,12.46,12.17,47.59359,-54.27349
2022-12-28 01:14:00+00:00,204.0,9.12,203.0,10.02,12.17,47.59359,-54.27349
2022-12-28 01:24:00+00:00,195.0,8.32,202.0,9.26,12.17,47.59359,-54.27349
2022-12-28 01:34:00+00:00,210.0,10.34,222.0,13.44,12.17,47.59359,-54.27349
2022-12-28 01:44:00+00:00,211.0,11.01,219.0,13.05,12.17,47.59359,-54.27349
2022-12-28 01:54:00+00:00,212.0,11.96,222.0,13.41,12.17,47.59359,-54.27349
2022-12-28 02:04:00+00:00,211.0,10.4,215.0,12.23,12.17,47.59359,-54.27349
2022-12-28 02:14:00+00:00,208.0,12.3,216.0,14.25,12.17,47.59359,-54.27349
2022-12-28 02:24:00+00:00,213.0,9.58,223.0,11.23,12.17,47.59359,-54.27349
2022-12-28 02:34:00+00:00,227.0,7.87,231.0,8.93,12.17,47.59359,-54.27349
2022-12-28 02:44:00+00:00,200.0,14.89,203.0,16.9,12.17,47.59359,-54.27349
2022-12-28 02:54:00+00:00,206.0,14.88,205.0,17.66,12.17,47.59359,-54.27349
2022-12-28 03:04:00+00:00,212.0,16.35,210.0,18.82,12.17,47.59359,-54.27349
2022-12-28 03:14:00+00:00,216.0,11.63,217.0,14.07,12.17,47.59359,-54.27349
2022-12-28 03:24:00+00:00,218.0,11.13,216.0,12.54,12.17,47.59359,-54.27349
2022-12-28 03:34:00+00:00,221.0,12.36,222.0,13.86,12.17,47.59359,-54.27349
2022-12-28 03:44:00+00:00,223.0,14.95,223.0,17.64,12.17,47.59359,-54.27349
2022-12-28 03:54:00+00:00,228.0,12.0,227.0,13.75,12.17,47.59359,-54.27349
2022-12-28 04:04:00+00:00,250.0,9.88,246.0,11.38,12.17,47.59359,-54.27349
2022-12-28 04:14:00+00:00,239.0,11.61,246.0,14.36,12.17,47.59359,-54.27349
2022-12-28 04:24:00+00:00,243.0,12.71,240.0,16.13,12.17,47.59359,-54.27349
2022-12-28 04:34:00+00:00,248.0,10.86,247.0,12.97,12.17,47.59359,-54.27349
2022-12-28 04:44:00+00:00,254.0,12.33,260.0,17.41,12.17,47.59359,-54.27349
2022-12-28 04:54:00+00:00,254.0,15.11,253.0,18.3,12.17,47.59359,-54.27349
2022-12-28 05:04:00+00:00,253.0,13.94,254.0,18.95,12.17,47.59359,-54.27349
2022-12-28 05:14:00+00:00,259.0,14.0,259.0,18.43,12.17,47.59359,-54.27349
2022-12-28 05:24:00+00:00,266.0,12.99,270.0,18.03,12.17,47.59359,-54.27349
2022-12-28 05:34:00+00:00,258.0,14.32,256.0,18.41,12.17,47.59359,-54.27349
2022-12-28 05:44:00+00:00,260.0,15.14,257.0,18.6,12.17,47.59359,-54.27349
2022-12-28 05:54:00+00:00,259.0,15.46,261.0,18.71,12.17,47.59359,-54.27349
2022-12-28 06:04:00+00:00,265.0,12.43,249.0,19.09,12.17,47.59359,-54.27349
2022-12-28 06:14:00+00:00,259.0,15.84,267.0,18.7,12.17,47.59359,-54.27349
2022-12-28 06:24:00+00:00,266.0,16.41,270.0,18.45,12.17,47.59359,-54.27349
2022-12-28 06:34:00+00:00,269.0,15.7,266.0,18.54,12.17,47.59359,-54.27349
2022-12-28 06:44:00+00:00,270.0,17.0,271.0,19.67,12.17,47.59359,-54.27349
2022-12-28 06:54:00+00:00,266.0,16.83,268.0,18.41,12.17,47.59359,-54.27349
2022-12-28 07:04:00+00:00,274.0,17.14,274.0,18.58,12.17,47.59359,-54.27349
2022-12-28 07:14:00+00:00,268.0,12.99,266.0,18.0,12.17,47.59359,-54.27349
2022-12-28 07:24:00+00:00,279.0,16.02,282.0,19.0,12.17,47.59359,-54.27349
2022-12-28 07:34:00+00:00,300.0,14.99,300.0,18.95,12.17,47.59359,-54.27349
2022-12-28 07:44:00+00:00,308.0,11.06,309.0,12.54,12.17,47.59359,-54.27349
2022-12-28 07:54:00+00:00,310.0,11.48,310.0,13.65,12.17,47.59359,-54.27349
2022-12-28 08:04:00+00:00,312.0,13.83,319.0,15.91,12.17,47.59359,-54.27349
2022-12-28 08:14:00+00:00,307.0,12.39,310.0,14.69,12.17,47.59359,-54.27349
2022-12-28 08:24:00+00:00,301.0,11.19,302.0,12.83,12.17,47.59359,-54.27349
2022-12-28 08:34:00+00:00,310.0,11.19,314.0,13.56,12.17,47.59359,-54.27349
2022-12-28 08:44:00+00:00,317.0,9.05,323.0,11.73,12.17,47.59359,-54.27349
2022-12-28 08:54:00+00:00,307.0,8.56,300.0,10.81,12.17,47.59359,-54.27349
2022-12-28 09:04:00+00:00,312.0,7.28,311.0,8.34,12.17,47.59359,-54.27349
2022-12-28 09:14:01+00:00,314.0,6.71,317.0,8.59,12.09,47.59359,-54.27349
2022-12-28 09:24:01+00:00,310.0,7.71,299.0,9.58,12.09,47.59359,-54.27349
2022-12-28 09:34:01+00:00,311.0,6.91,304.0,8.27,12.09,47.59359,-54.27349
2022-12-28 09:44:01+00:00,317.0,7.29,318.0,8.65,12.09,47.59359,-54.27349
2022-12-28 09:54:01+00:00,314.0,8.17,310.0,9.89,12.09,47.59359,-54.27349
2022-12-28 10:04:01+00:00,305.0,5.67,305.0,7.25,12.09,47.59359,-54.27349
2022-12-28 10:14:01+00:00,296.0,6.33,295.0,7.69,12.09,47.59359,-54.27349
2022-12-28 10:24:01+00:00,293.0,7.02,292.0,8.22,12.09,47.59359,-54.27349
2022-12-28 10:34:01+00:00,297.0,7.9,293.0,8.85,12.09,47.59359,-54.27349
2022-12-28 10:44:01+00:00,302.0,6.75,297.0,7.94,12.09,47.59359,-54.27349
2022-12-28 10:54:01+00:00,310.0,7.17,313.0,8.13,12.09,47.59359,-54.27349
2022-12-28 11:04:01+00:00,307.0,6.9,304.0,8.72,12.09,47.59359,-54.27349
2022-12-28 11:14:00+00:00,310.0,6.79,310.0,7.99,12.09,47.59359,-54.27349
2022-12-28 11:24:00+00:00,319.0,6.65,321.0,7.5,12.09,47.59359,-54.27349
2022-12-28 11:34:00+00:00,318.0,5.49,323.0,6.83,12.09,47.59359,-54.27349
2022-12-28 11:44:00+00:00,293.0,5.41,300.0,6.58,12.09,47.59359,-54.27349
2022-12-28 11:54:00+00:00,305.0,6.12,302.0,7.57,12.09,47.59359,-54.27349
2022-12-28 12:04:00+00:00,305.0,6.23,294.0,7.35,12.09,47.59359,-54.27349
2022-12-28 12:14:01+00:00,310.0,6.86,314.0,9.72,13.92,47.59359,-54.27349
2022-12-28 12:24:01+00:00,308.0,5.5,313.0,6.34,13.92,47.59359,-54.27349
2022-12-28 12:34:01+00:00,306.0,5.78,310.0,6.62,13.92,47.59359,-54.27349
2022-12-28 12:44:01+00:00,305.0,6.02,310.0,7.03,13.92,47.59359,-54.27349
2022-12-28 12:54:01+00:00,299.0,5.62,294.0,7.18,13.92,47.59359,-54.27349
2022-12-28 13:04:01+00:00,291.0,4.72,290.0,5.33,13.92,47.59359,-54.27349
2022-12-28 13:14:01+00:00,289.0,3.7,285.0,5.73,14.4,47.59359,-54.27349
2022-12-28 13:24:01+00:00,281.0,4.28,266.0,4.99,14.4,47.59359,-54.27349
2022-12-28 13:34:01+00:00,299.0,5.95,295.0,7.76,14.4,47.59359,-54.27349
2022-12-28 13:44:01+00:00,303.0,5.48,300.0,6.47,14.4,47.59359,-54.27349
2022-12-28 13:54:01+00:00,315.0,8.44,316.0,11.51,14.4,47.59359,-54.27349
2022-12-28 14:04:01+00:00,325.0,6.98,332.0,8.19,14.4,47.59359,-54.27349
2022-12-28 14:14:01+00:00,308.0,7.64,300.0,9.57,14.24,47.59359,-54.27349
2022-12-28 14:24:01+00:00,311.0,5.83,304.0,8.11,14.24,47.59359,-54.27349
2022-12-28 14:34:01+00:00,294.0,8.76,290.0,12.49,14.24,47.59359,-54.27349
2022-12-28 14:44:01+00:00,292.0,7.92,275.0,13.57,14.24,47.59359,-54.27349
2022-12-28 14:54:01+00:00,288.0,7.02,281.0,8.97,14.24,47.59359,-54.27349
2022-12-28 15:04:01+00:00,305.0,9.79,310.0,10.86,14.24,47.59359,-54.27349
2022-12-28 15:14:00+00:00,306.0,9.94,299.0,11.34,13.92,47.59359,-54.27349
2022-12-28 15:24:00+00:00,320.0,8.29,314.0,10.76,13.92,47.59359,-54.27349
2022-12-28 15:34:00+00:00,312.0,10.14,318.0,12.01,13.92,47.59359,-54.27349
2022-12-28 15:44:00+00:00,297.0,9.79,290.0,14.47,13.92,47.59359,-54.27349
2022-12-28 15:54:00+00:00,308.0,8.99,308.0,10.09,13.92,47.59359,-54.27349
2022-12-28 16:04:00+00:00,299.0,8.11,306.0,9.84,13.92,47.59359,-54.27349
2022-12-28 16:14:00+00:00,321.0,7.07,327.0,9.31,13.92,47.59359,-54.27349
2022-12-28 16:24:00+00:00,316.0,5.8,307.0,8.49,13.92,47.59359,-54.27349
2022-12-28 16:34:00+00:00,295.0,8.83,298.0,11.5,13.92,47.59359,-54.27349
2022-12-28 16:44:00+00:00,317.0,7.41,308.0,9.92,13.92,47.59359,-54.27349
2022-12-28 16:54:00+00:00,307.0,7.51,305.0,9.46,13.92,47.59359,-54.27349
2022-12-28 17:04:00+00:00,296.0,6.74,293.0,8.94,13.92,47.59359,-54.27349
2022-12-28 17:14:00+00:00,283.0,11.19,282.0,14.47,14.32,47.59359,-54.27349
2022-12-28 17:24:00+00:00,288.0,7.05,281.0,8.61,14.32,47.59359,-54.27349
2022-12-28 17:34:00+00:00,300.0,9.91,292.0,13.64,14.32,47.59359,-54.27349
2022-12-28 17:44:00+00:00,304.0,8.73,300.0,9.96,14.32,47.59359,-54.27349
2022-12-28 17:54:00+00:00,315.0,5.72,300.0,8.6,14.32,47.59359,-54.27349
2022-12-28 18:04:00+00:00,297.0,9.77,288.0,12.48,14.32,47.59359,-54.27349
2022-12-28 18:14:01+00:00,300.0,11.13,297.0,15.44,13.68,47.59359,-54.27349
2022-12-28 18:24:01+00:00,292.0,7.65,293.0,9.15,13.68,47.59359,-54.27349
2022-12-28 18:34:01+00:00,315.0,7.22,303.0,9.34,13.68,47.59359,-54.27349
2022-12-28 18:44:01+00:00,320.0,6.04,308.0,7.87,13.68,47.59359,-54.27349
2022-12-28 18:54:01+00:00,319.0,5.82,297.0,8.81,13.68,47.59359,-54.27349
2022-12-28 19:04:01+00:00,323.0,6.7,313.0,7.97,13.68,47.59359,-54.27349
2022-12-28 19:14:00+00:00,326.0,5.52,328.0,6.97,13.21,47.59359,-54.27349
2022-12-28 19:24:00+00:00,312.0,6.62,306.0,9.74,13.21,47.59359,-54.27349
2022-12-28 19:34:00+00:00,310.0,7.16,309.0,9.41,13.21,47.59359,-54.27349
2022-12-28 19:44:00+00:00,317.0,4.84,301.0,7.82,13.21,47.59359,-54.27349
2022-12-28 19:54:00+00:00,324.0,6.14,315.0,7.58,13.21,47.59359,-54.27349
2022-12-28 20:04:00+00:00,322.0,6.0,321.0,7.22,13.21,47.59359,-54.27349
2022-12-28 20:14:00+00:00,295.0,6.63,284.0,8.82,12.57,47.59359,-54.27349
2022-12-28 20:24:00+00:00,314.0,5.81,298.0,8.1,12.57,47.59359,-54.27349
2022-12-28 20:34:00+00:00,317.0,5.88,319.0,7.32,12.57,47.59359,-54.27349
2022-12-28 20:44:00+00:00,301.0,6.2,286.0,8.57,12.57,47.59359,-54.27349
2022-12-28 20:54:00+00:00,301.0,7.92,307.0,9.67,12.57,47.59359,-54.27349
2022-12-28 21:04:00+00:00,317.0,4.01,292.0,6.74,12.57,47.59359,-54.27349
2022-12-28 21:14:00+00:00,313.0,5.93,304.0,8.71,12.49,47.59359,-54.27349
2022-12-28 21:24:00+00:00,291.0,7.91,283.0,11.37,12.49,47.59359,-54.27349
2022-12-28 21:34:00+00:00,290.0,9.04,289.0,12.71,12.49,47.59359,-54.27349
2022-12-28 21:44:00+00:00,300.0,7.72,303.0,9.37,12.49,47.59359,-54.27349
2022-12-28 21:54:00+00:00,304.0,8.13,306.0,9.73,12.49,47.59359,-54.27349
2022-12-28 22:04:00+00:00,318.0,5.2,303.0,8.66,12.49,47.59359,-54.27349
2022-12-28 22:14:00+00:00,305.0,6.92,297.0,10.19,12.41,47.59359,-54.27349
2022-12-28 22:24:00+00:00,307.0,8.73,308.0,10.57,12.41,47.59359,-54.27349
2022-12-28 22:34:00+00:00,308.0,9.2,309.0,10.57,12.41,47.59359,-54.27349
2022-12-28 22:44:00+00:00,295.0,7.25,287.0,10.92,12.41,47.59359,-54.27349
2022-12-28 22:54:00+00:00,299.0,7.64,294.0,10.16,12.41,47.59359,-54.27349
2022-12-28 23:04:00+00:00,297.0,8.57,283.0,11.28,12.41,47.59359,-54.27349
2022-12-28 23:14:00+00:00,314.0,5.41,300.0,8.5,12.41,47.59359,-54.27349
2022-12-28 23:24:00+00:00,315.0,5.32,299.0,8.17,12.41,47.59359,-54.27349
2022-12-28 23:34:00+00:00,323.0,5.37,312.0,7.73,12.41,47.59359,-54.27349
2022-12-28 23:44:00+00:00,300.0,7.48,298.0,9.17,12.41,47.59359,-54.27349
2022-12-28 23:54:00+00:00,291.0,6.42,298.0,8.61,12.41,47.59359,-54.27349
